[[{"header":{"parameterUnit":"m.s-1","parameterCategory":1,"la1":30.2991,"la2":30.254,"lo1":-89.0895,"lo2":-89.0444,"dy":0.0017,"dx":0.0017,"nx":28,"ny":28,"refTime":"2025-11-17T03:00:00:Z","depth":0,"parameterNumber":2,"parameterNumberName":"U-component_of_WINDS"},"data":[0,0,0,0,0,0,0,0,0,0,0,0,0,0,0,0,0,0,0,0,0,0,0,0,0,0,0,0,0,0,0,0,0,0,0,0,0,0,0,0,0,0,0,0,0,0,0,0,0,0,0,0,0,0,0,0,0,0,2.0637,2.0637,0,2.0681,2.0682,2.0682,2.0639,2.0637,2.0635,2.0634,2.068,2.0683,2.0686,0,0,0,0,0,0,0,0,0,0,0,0,0,2.0514,2.0516,2.0637,2.0637,2.0638,2.0681,2.0682,2.0683,2.0639,2.0637,2.0635,2.0633,2.0679,2.0682,2.0686,0,0,0,0,0,0,0,0,0,0,0,0,0,2.0564,2.0517,2.0636,2.0621,2.062,2.0681,2.0682,2.0683,2.0639,2.0637,2.0634,2.0632,2.0678,2.0682,2.0686,2.0765,0,0,2.0699,2.0701,0,0,0,0,0,0,0,0,2.0561,2.0568,2.0623,2.0622,2.0621,2.0652,2.0656,2.071,2.064,2.0632,2.0634,2.0631,2.0673,2.0677,2.0691,2.0767,2.0769,2.07,2.0702,2.0704,2.0705,0,0,0,0,0,0,0,2.0557,2.0566,2.0654,2.0624,2.0623,2.0612,2.0617,2.0666,2.0667,2.0633,2.063,2.0636,2.0672,2.0687,2.0692,2.077,2.07,2.0703,2.0706,2.0708,2.0911,2.0914,0,0,0,0,0,0,2.0556,2.0563,2.0653,2.0656,2.0584,2.0617,2.0621,2.0645,2.0666,2.0667,2.0638,2.0633,2.0681,2.0687,2.0694,2.0786,2.0704,2.0708,2.0711,2.0909,2.0912,2.0915,0,0,0,0,0,0,2.0553,2.0564,2.0651,2.0609,2.0619,2.0621,2.0648,2.0647,2.0662,2.067,2.067,2.0653,2.068,2.0688,2.0747,2.0787,2.071,2.0714,2.0905,2.091,2.0914,2.0972,0,0,0,0,0,0,2.055,2.0563,2.0593,2.061,2.0621,2.0704,2.0651,2.065,2.067,2.0664,2.0684,2.0685,2.0678,2.0741,2.0752,2.0791,2.0717,2.0902,2.0907,2.0912,2.0966,2.0978,2.0987,0,0,0,0,0,2.0546,2.0608,2.0595,2.0606,2.0658,2.0706,2.0713,2.0703,2.0673,2.0703,2.0708,2.0684,2.0782,2.0748,2.0759,2.0801,2.0899,2.0906,2.0912,2.0962,2.0975,2.0987,0,0,0,0,0,0,2.0595,2.061,2.0595,2.0665,2.0685,2.0699,2.0736,2.0718,2.0747,2.0741,2.0728,2.0733,2.0796,2.0805,2.0767,2.0878,2.0835,2.0844,2.0869,2.0882,2.0893,2.0888,2.0721,0,0,0,0,0,2.0614,2.0652,2.0662,2.0723,2.0733,2.0733,2.0754,2.0745,2.0765,2.0773,2.0782,2.0803,2.0838,2.0861,2.0894,2.0968,2.0971,2.1003,2.1013,2.1022,2.1029,2.1068,2.1082,2.0936,2.0936,2.0936,0,0,2.0654,2.0666,2.0691,2.0733,2.0747,2.0786,2.074,2.0784,2.0812,2.078,2.0836,2.0844,2.0866,2.0933,2.0963,2.0942,2.107,2.103,2.1037,2.1039,2.1076,2.109,2.1102,2.094,2.094,2.0939,0,0,2.0745,2.0759,2.081,2.0826,2.0848,2.0848,2.0861,2.0878,2.0881,2.0938,2.0914,2.0949,2.101,2.1026,2.1042,2.1142,2.1121,2.1153,2.1207,2.1246,2.1257,2.1267,2.1301,2.1314,2.1161,2.1161,2.1161,0,2.0791,2.0849,2.0839,2.0884,2.0903,2.0876,2.0928,2.0943,2.0976,2.0989,2.0966,2.1041,2.1055,2.1125,2.1149,2.1164,2.1177,2.115,2.1256,2.1266,2.1275,2.1308,2.1321,2.1165,2.1164,2.1164,2.1164,0,2.0904,2.0945,2.0984,2.1015,2.1039,2.1087,2.1085,2.111,2.11,2.1102,2.116,2.1175,2.121,2.1227,2.1217,2.1296,2.1282,2.1258,2.1215,2.1293,2.1323,2.1336,2.117,2.1169,2.1168,2.1167,0,0,2.1026,2.1052,2.1067,2.108,2.1104,2.1135,2.1183,2.1217,2.1238,2.1262,2.1301,2.1354,2.1331,2.135,2.1343,2.1377,2.1453,2.1348,2.1348,2.1366,2.154,2.1557,2.1571,2.1441,2.1443,2.1445,2.1538,0,2.1117,2.1199,2.1192,2.1269,2.1306,2.1281,2.1323,2.1342,2.1346,2.1378,2.1382,2.1419,2.1388,2.1399,2.1432,2.1437,2.1488,2.1431,2.1476,2.1478,2.1469,2.1587,2.1605,2.1691,2.155,2.1552,2.1553,0,2.1233,2.1261,2.1342,2.136,2.1375,2.1412,2.1443,2.1475,2.1496,2.1497,2.1518,2.1505,2.1553,2.151,2.1576,2.1537,2.1556,2.1562,2.1565,2.1567,2.1518,2.1591,2.1719,2.1731,2.1572,2.157,2.1569,0,2.1312,2.137,2.1426,2.1439,2.1461,2.1488,2.1499,2.1518,2.1539,2.1566,2.158,2.1613,2.1631,2.1657,2.1653,2.1622,2.1719,2.1677,2.172,2.172,2.1739,2.1738,2.187,2.1755,2.1755,2.1755,2.1755,0,2.1413,2.1463,2.1461,2.1495,2.1551,2.1543,2.1598,2.1606,2.1623,2.1658,2.164,2.1674,2.1668,2.1701,2.1699,2.1753,2.1762,2.1763,2.1761,2.1763,2.1763,2.1773,2.1766,2.1758,2.1758,2.1757,2.1756,0,2.1509,2.151,2.1569,2.1586,2.1592,2.1632,2.1646,2.1679,2.1682,2.1727,2.1737,2.1742,2.178,2.178,2.1824,2.1822,2.1888,2.1881,2.188,2.1878,2.1921,2.1916,2.2063,2.2081,2.1957,2.1958,2.1959,0,2.1572,2.161,2.1632,2.1654,2.1666,2.1703,2.1724,2.1719,2.1742,2.177,2.1799,2.1836,2.1865,2.1928,2.1935,2.1969,2.1961,2.201,2.1966,2.1966,2.1959,2.1956,2.1959,2.2018,2.2019,2.2021,2.2021,0,2.1684,2.1683,2.1714,2.1747,2.1773,2.1798,2.1821,2.1841,2.1838,2.1865,2.1904,2.1927,2.1972,2.2009,2.2042,2.2053,2.2037,2.2036,2.2047,2.2048,2.2046,2.2046,2.1902,2.2032,2.2031,2.203,2.2029,2.2029,2.1764,2.1796,2.1816,2.1852,2.187,2.1892,2.1923,2.193,2.1963,2.1999,2.1994,2.2038,2.2059,2.2101,2.2116,2.215,2.2132,2.2149,2.2153,2.2157,2.2161,2.2043,2.2156,2.2156,2.2155,2.2155,2.2155,0,2.1872,2.1885,2.1918,2.1951,2.198,2.1963,2.1988,2.2013,2.2052,2.2073,2.2102,2.2147,2.2183,2.2194,2.2229,2.2254,2.2247,2.2263,2.226,2.2262,2.2175,2.2161,2.2268,2.2268,2.2268,2.2268,2.2267,2.2267,2.1932,2.1986,2.1987,2.2049,2.2061,2.2104,2.2119,2.214,2.2157,2.2208,2.2237,2.2245,2.2262,2.2298,2.233,2.2332,2.2345,2.2363,2.2362,2.228,2.2269,2.2258,2.2244,2.2367,2.2367,2.2446,2.2447,2.2448]},{"header":{"parameterUnit":"m.s-1","parameterCategory":1,"la1":30.2991,"la2":30.254,"lo1":-89.0895,"lo2":-89.0444,"dy":0.0017,"dx":0.0017,"nx":28,"ny":28,"refTime":"2025-11-17T03:00:00:Z","depth":0,"parameterNumber":3,"parameterNumberName":"V-component_of_WINDS"},"data":[0,0,0,0,0,0,0,0,0,0,0,0,0,0,0,0,0,0,0,0,0,0,0,0,0,0,0,0,0,0,0,0,0,0,0,0,0,0,0,0,0,0,0,0,0,0,0,0,0,0,0,0,0,0,0,0,0,0,1.471,1.471,0,1.4761,1.4762,1.4763,1.476,1.4759,1.4759,1.4758,1.4807,1.4809,1.4811,0,0,0,0,0,0,0,0,0,0,0,0,0,1.4604,1.4606,1.471,1.471,1.4711,1.4761,1.4762,1.4763,1.476,1.4759,1.4759,1.4758,1.4806,1.4809,1.4811,0,0,0,0,0,0,0,0,0,0,0,0,0,1.4652,1.4607,1.4709,1.4716,1.4717,1.4761,1.4762,1.4763,1.4761,1.4759,1.4758,1.4757,1.4806,1.4808,1.4811,1.4851,0,0,1.482,1.4822,0,0,0,0,0,0,0,0,1.4649,1.4656,1.4714,1.4716,1.4717,1.4753,1.4743,1.4792,1.4761,1.4744,1.4758,1.4757,1.479,1.4794,1.4806,1.4854,1.4856,1.4821,1.4822,1.4824,1.4825,0,0,0,0,0,0,0,1.4646,1.4654,1.473,1.4715,1.4717,1.4715,1.472,1.4752,1.4772,1.4745,1.4745,1.4752,1.479,1.4803,1.4807,1.4856,1.4821,1.4823,1.4825,1.4826,1.4938,1.4939,0,0,0,0,0,0,1.4642,1.4651,1.4728,1.4731,1.468,1.4717,1.4724,1.4743,1.4772,1.4775,1.4752,1.4751,1.4798,1.4804,1.4809,1.4856,1.4824,1.4826,1.4828,1.4936,1.4938,1.4939,0,0,0,0,0,0,1.464,1.4649,1.4726,1.4691,1.4701,1.472,1.4742,1.4744,1.4757,1.4777,1.478,1.4762,1.4798,1.4805,1.4841,1.4858,1.4828,1.4831,1.4935,1.4937,1.4938,1.4952,0,0,0,0,0,0,1.4637,1.4648,1.4665,1.4692,1.4703,1.4759,1.4743,1.4746,1.4763,1.4762,1.4787,1.479,1.4798,1.4836,1.4844,1.4861,1.4833,1.4934,1.4936,1.4938,1.495,1.4954,1.4958,0,0,0,0,0,1.4633,1.4666,1.4665,1.4675,1.4724,1.476,1.4766,1.4775,1.4764,1.478,1.4793,1.479,1.4855,1.484,1.4848,1.4867,1.4932,1.4935,1.4938,1.4949,1.4953,1.4958,0,0,0,0,0,0,1.4639,1.4669,1.4669,1.4712,1.4734,1.4759,1.478,1.478,1.4803,1.4801,1.481,1.4815,1.4851,1.4863,1.4846,1.4906,1.4892,1.4897,1.4898,1.4902,1.4906,1.4902,1.4835,0,0,0,0,0,1.4645,1.4673,1.4698,1.4733,1.4744,1.476,1.4776,1.4781,1.4803,1.4811,1.4827,1.4847,1.4871,1.4888,1.4912,1.4952,1.4957,1.4969,1.4973,1.4976,1.4979,1.5,1.5005,1.4948,1.4948,1.4948,0,0,1.4659,1.4679,1.4696,1.4735,1.4752,1.4779,1.4768,1.4797,1.4816,1.4815,1.485,1.4862,1.4885,1.4923,1.494,1.4934,1.4996,1.4979,1.4981,1.4983,1.5003,1.5008,1.5013,1.495,1.4949,1.4949,0,0,1.4696,1.4715,1.4746,1.4764,1.479,1.4801,1.4808,1.4834,1.4842,1.4878,1.4877,1.49,1.4943,1.4959,1.4972,1.5016,1.5013,1.5023,1.5042,1.5062,1.5066,1.507,1.5085,1.509,1.5027,1.5027,1.5027,0,1.4709,1.4751,1.4762,1.4792,1.4808,1.4809,1.484,1.4856,1.4888,1.4899,1.4891,1.4945,1.496,1.5001,1.5012,1.5024,1.5031,1.502,1.5065,1.5069,1.5073,1.5087,1.5092,1.5028,1.5028,1.5028,1.5027,0,1.4765,1.4794,1.4816,1.4848,1.4867,1.4897,1.491,1.4928,1.4931,1.4942,1.4977,1.4996,1.5023,1.5034,1.5037,1.5075,1.507,1.5064,1.5049,1.508,1.5092,1.5098,1.5029,1.5029,1.5029,1.5028,0,0,1.4807,1.4846,1.4853,1.4867,1.4896,1.4918,1.4947,1.4976,1.499,1.5012,1.5035,1.5072,1.5066,1.5082,1.5086,1.5104,1.5136,1.5096,1.5096,1.5101,1.5177,1.518,1.5186,1.5134,1.5135,1.5136,1.5174,0,1.4847,1.4901,1.4911,1.4956,1.4982,1.4984,1.5009,1.5029,1.5039,1.5061,1.5073,1.5098,1.5089,1.5099,1.5116,1.5128,1.5151,1.5126,1.5154,1.5155,1.5148,1.5193,1.5197,1.5232,1.518,1.5181,1.5181,0,1.4901,1.4925,1.4974,1.4999,1.501,1.5033,1.5059,1.5081,1.5102,1.5109,1.5126,1.5129,1.5157,1.5142,1.518,1.5163,1.5175,1.5183,1.5184,1.5186,1.5169,1.5195,1.5244,1.5249,1.5189,1.5189,1.5188,0,1.4925,1.497,1.5005,1.5017,1.5048,1.5063,1.5076,1.5097,1.5113,1.5135,1.5145,1.517,1.5183,1.5202,1.521,1.5199,1.5247,1.5233,1.5252,1.5251,1.5261,1.526,1.5311,1.5271,1.5271,1.5271,1.5271,0,1.4968,1.4997,1.5016,1.5038,1.507,1.5081,1.5112,1.5124,1.5142,1.5165,1.5167,1.5188,1.5199,1.522,1.5227,1.5257,1.5263,1.5267,1.5269,1.5267,1.5266,1.5274,1.5271,1.5272,1.5272,1.5272,1.5271,0,1.5,1.5015,1.5052,1.5078,1.5085,1.5108,1.5129,1.5148,1.5159,1.5187,1.5194,1.521,1.5236,1.5247,1.5278,1.5282,1.5316,1.5316,1.5309,1.5309,1.5326,1.5324,1.5383,1.5391,1.5347,1.5347,1.5348,0,1.5026,1.5049,1.5077,1.5093,1.5107,1.5132,1.5149,1.516,1.5176,1.5202,1.5218,1.5244,1.5266,1.5306,1.5319,1.5343,1.5342,1.5362,1.5346,1.5343,1.5341,1.5339,1.5341,1.5364,1.5364,1.5365,1.5365,0,1.5069,1.5075,1.51,1.5127,1.5147,1.5168,1.5189,1.5201,1.5215,1.5233,1.526,1.5277,1.5309,1.5334,1.5358,1.537,1.5369,1.537,1.5375,1.5373,1.5368,1.5369,1.5315,1.5369,1.5368,1.5368,1.5368,1.5368,1.5098,1.5118,1.5141,1.5168,1.5185,1.5205,1.5224,1.5238,1.5261,1.5289,1.5293,1.5321,1.5341,1.5374,1.5386,1.5407,1.5402,1.541,1.5412,1.5413,1.5414,1.5365,1.5412,1.5412,1.5412,1.5411,1.5411,0,1.5141,1.5156,1.5181,1.521,1.5231,1.5231,1.5253,1.527,1.5295,1.5315,1.5336,1.5366,1.539,1.5406,1.5429,1.5443,1.5443,1.5449,1.5447,1.545,1.5418,1.541,1.5448,1.5448,1.5448,1.5448,1.5448,1.5448,1.5165,1.5199,1.5207,1.5248,1.5263,1.5292,1.5304,1.5322,1.5337,1.5371,1.5392,1.5402,1.5419,1.5444,1.5466,1.547,1.5478,1.5483,1.5486,1.5456,1.5452,1.5448,1.5441,1.5485,1.5485,1.5517,1.5517,1.5517]}]]